Weather History for KFOA - December, 2013

Change the Weather History Date:

Saturday, December 21, 2013

  Actual Average (KEVV) Record (KEVV)
Temperature  
Mean Temperature 38 °F 34 °F  
Max Temperature 40 °F 43 °F 69 °F (1967)
Min Temperature 35 °F 26 °F -13 °F (1989)
Degree Days  
Heating Degree Days 28 31  
Month to date heating degree days 596  
Since 1 July heating degree days 1457  
Cooling Degree Days 0 0  
Month to date cooling degree days 0  
Year to date cooling degree days 1397  
Moisture  
Dew Point 37 °F    
Average Humidity 100    
Maximum Humidity 100    
Minimum Humidity 97    
Precipitation  
Precipitation 2.21 in 0.12 in 4.42 in (2013)
Month to date precipitation 2.62  
Year to date precipitation 44.17  
Snow  
Snow 0.00 in 0.10 in 3.00 in (1969)
Month to date snowfall 1.9  
Since 1 July snowfall 2.2  
Snow Depth -    
Sea Level Pressure  
Sea Level Pressure 29.69 in    
Wind  
Wind Speed 8 mph (North)    
Max Wind Speed 17 mph    
Max Gust Speed 32 mph    
Visibility 5 miles    
Events Rain , Snow , Thunderstorm    
T = Trace of Precipitation, MM = Missing Value Source: NWS Daily Summary

Daily Weather History Graph

Daily Weather History Graph

Search for Another Location

Airport or City:

Trip Planner

Search our weather history database for the weather conditions in past years. The results will help you decide how hot, cold, wet, or windy it might be!

Date:

Astronomy

Dec. 21, 2013 Rise Set
Actual Time 7:08 AM CST 4:35 PM CST
Civil Twilight 6:38 AM CST 5:05 PM CST
Nautical Twilight 6:04 AM CST 5:39 PM CST
Astronomical Twilight 5:32 AM CST 6:11 PM CST
Moon 8:49 PM CST (12/21) 9:36 AM CST (12/21)
Length of Visible Light 10h 27m
Length of Day
9h 27m
Waning Gibbous, 84% of the Moon is Illuminated
Dec 21
Waning Gibbous
Dec 25
Last Quarter
Jan 1
New
Jan 7
First Quarter
Jan 15
Full

Hourly Weather History & Observations

Time (CST) Temp. Windchill Dew Point Humidity Pressure Visibility Wind Dir Wind Speed Gust Speed Precip Events Conditions
12:15 AM 40.5 °F 35.8 °F 39.9 °F 98% 29.85 in 7.0 mi North 6.9 mph - 0.01 in Rain Light Rain
12:35 AM 39.4 °F 33.8 °F 38.7 °F 97% 29.84 in 10.0 mi North 8.1 mph - 0.01 in Rain Light Rain
12:55 AM 39.6 °F 33.0 °F 39.2 °F 99% 29.83 in 7.0 mi North 10.4 mph - 0.03 in Rain Light Rain
1:15 AM 39.2 °F 33.6 °F 38.3 °F 97% 29.83 in 5.0 mi NNW 8.1 mph - 0.03 in Rain Rain
1:35 AM 38.8 °F - 38.3 °F 98% 29.83 in 2.0 mi Calm Calm - 0.12 in   Overcast
1:55 AM 38.8 °F 35.4 °F 38.5 °F 99% 29.83 in 3.0 mi North 4.6 mph - 0.16 in Rain Light Rain
2:15 AM 38.3 °F 33.2 °F 38.3 °F 100% 29.81 in 7.0 mi North 6.9 mph - 0.01 in Rain Rain
2:35 AM 38.1 °F 32.9 °F 37.9 °F 99% 29.82 in 7.0 mi North 6.9 mph - 0.01 in Rain Light Rain
3:35 AM 37.4 °F 29.8 °F 37.0 °F 99% 29.79 in 4.0 mi North 11.5 mph - 0.09 in Rain Rain
3:55 AM 37.0 °F 31.0 °F 36.9 °F 99% 29.79 in 1.8 mi NNW 8.1 mph - 0.22 in Snow Light Snow
4:15 AM 36.5 °F 30.3 °F 36.1 °F 99% 29.77 in 1.8 mi North 8.1 mph - 0.12 in Snow Light Snow
4:35 AM 36.3 °F 30.8 °F 36.3 °F 100% 29.79 in 1.8 mi North 6.9 mph - 0.22 in Snow Light Snow
4:55 AM 36.0 °F 30.3 °F 35.8 °F 99% 29.78 in 4.0 mi North 6.9 mph - 0.26 in Rain Rain
5:15 AM 36.0 °F 29.6 °F 35.8 °F 99% 29.76 in 7.0 mi North 8.1 mph - 0.01 in Rain Light Rain
5:35 AM 36.0 °F 31.1 °F 35.8 °F 99% 29.79 in 2.5 mi North 5.8 mph - 0.06 in Rain Heavy Rain
5:55 AM 35.8 °F 28.8 °F 35.6 °F 99% 29.79 in 3.0 mi North 9.2 mph - 0.13 in   Unknown
6:15 AM 36.0 °F 29.6 °F 35.8 °F 99% 29.81 in 3.0 mi NW 8.1 mph - 0.06 in   Overcast
6:35 AM 36.0 °F 29.0 °F 35.8 °F 99% 29.79 in 3.0 mi North 9.2 mph - 0.13 in   Overcast
6:55 AM 36.0 °F 29.0 °F 36.0 °F 100% 29.79 in 3.0 mi North 9.2 mph - 0.19 in   Unknown
7:15 AM 35.8 °F 28.3 °F 35.8 °F 100% 29.77 in 3.0 mi NNE 10.4 mph - 0.04 in Rain Light Rain
7:35 AM 35.8 °F 33.0 °F 35.6 °F 99% 29.77 in 3.0 mi NNE 3.5 mph - 0.07 in Rain Rain
7:55 AM 36.0 °F 33.3 °F 35.8 °F 99% 29.77 in 4.0 mi NNE 3.5 mph - 0.11 in Rain Rain
8:15 AM 36.1 °F 32.3 °F 36.0 °F 99% 29.77 in 1.5 mi North 4.6 mph - 0.05 in Rain Light Rain
8:35 AM 36.3 °F 32.5 °F 36.3 °F 100% 29.75 in 3.0 mi NNE 4.6 mph - 0.08 in Rain Rain
8:55 AM 36.7 °F - 36.7 °F 100% 29.75 in 7.0 mi Calm Calm - 0.09 in Rain Rain
9:15 AM 36.7 °F 34.1 °F 36.7 °F 100% 29.76 in 3.0 mi North 3.5 mph - 0.02 in Rain Rain
9:35 AM 36.5 °F - 36.5 °F 100% 29.77 in 5.0 mi Calm Calm - 0.03 in Rain Light Rain
9:55 AM 36.3 °F 29.5 °F 36.3 °F 100% 29.79 in 1.5 mi NNW 9.2 mph - 0.08 in Rain Light Rain
10:15 AM 36.1 °F 27.7 °F 36.1 °F 100% 29.79 in 1.2 mi NNW 12.7 mph 17.3 mph 0.05 in   Overcast
10:35 AM 35.8 °F 25.7 °F 35.8 °F 100% 29.79 in 1.8 mi NW 17.3 mph 21.9 mph 0.11 in Rain Rain
10:55 AM 35.6 °F 26.2 °F 35.6 °F 100% 29.79 in 2.0 mi NW 15.0 mph 23.0 mph 0.15 in Rain Rain
11:15 AM 35.2 °F 27.6 °F 35.2 °F 100% 29.78 in 2.0 mi NNW 10.4 mph 32.2 mph 0.04 in Rain Rain
11:35 AM 35.2 °F 28.1 °F 35.2 °F 100% 29.74 in 3.0 mi North 9.2 mph - 0.06 in Rain Rain
11:55 AM 35.6 °F 32.8 °F 35.6 °F 100% 29.74 in 3.0 mi North 3.5 mph - 0.10 in Rain Light Rain
12:15 PM 35.6 °F - 35.2 °F 99% 29.72 in 2.5 mi Calm Calm - 0.03 in Rain Rain
12:35 PM 35.6 °F - 35.6 °F 100% 29.71 in 3.0 mi Calm Calm - 0.06 in Rain Rain
12:55 PM 35.8 °F 31.9 °F 35.8 °F 100% 29.69 in 3.0 mi NNE 4.6 mph - 0.09 in Rain Rain
1:15 PM 36.3 °F 32.5 °F 36.3 °F 100% 29.66 in 7.0 mi NE 4.6 mph - 0.01 in Rain Light Rain
1:35 PM 36.9 °F 31.4 °F 36.9 °F 100% 29.65 in 5.0 mi ENE 6.9 mph - 0.03 in Rain Rain
1:55 PM 37.0 °F 33.3 °F 37.0 °F 100% 29.65 in 5.0 mi NE 4.6 mph - 0.06 in Rain Rain
2:15 PM 37.0 °F 31.0 °F 37.0 °F 100% 29.63 in 4.0 mi North 8.1 mph - 0.04 in Rain Rain
2:35 PM 37.0 °F - 37.0 °F 100% 29.62 in 5.0 mi Calm Calm - 0.07 in Rain Rain
2:55 PM 37.0 °F 31.6 °F 37.0 °F 100% 29.62 in 4.0 mi NNE 6.9 mph - 0.09 in Rain Rain
3:15 PM 37.2 °F 32.6 °F 37.2 °F 100% 29.62 in 4.0 mi NNE 5.8 mph - 0.02 in Rain Rain
3:35 PM 37.4 °F 32.1 °F 37.4 °F 100% 29.60 in 5.0 mi NNE 6.9 mph - 0.05 in Rain Light Rain
3:55 PM 37.4 °F 30.3 °F 37.4 °F 100% 29.59 in 7.0 mi NNE 10.4 mph - 0.07 in Rain Rain
4:15 PM 37.4 °F 30.8 °F 37.4 °F 100% 29.58 in 4.0 mi NNE 9.2 mph - 0.03 in Rain Rain
4:35 PM 37.0 °F 30.4 °F 37.0 °F 100% 29.58 in 5.0 mi North 9.2 mph - 0.07 in Rain Rain
4:55 PM 37.0 °F 28.9 °F 37.0 °F 100% 29.59 in 5.0 mi North 12.7 mph - 0.10 in Rain Rain
5:15 PM 36.9 °F 28.2 °F 36.9 °F 100% 29.59 in 3.0 mi NNW 13.8 mph - 0.04 in Rain Rain
5:35 PM 36.5 °F 27.4 °F 36.5 °F 100% 29.57 in 4.0 mi NNW 15.0 mph 21.9 mph 0.07 in Rain Rain
5:55 PM 36.1 °F 26.5 °F 36.0 °F 99% 29.61 in 10.0 mi WNW 16.1 mph 20.7 mph 0.08 in Rain Rain
6:15 PM 36.0 °F 27.5 °F 35.6 °F 99% 29.58 in 5.0 mi NNW 12.7 mph - 0.01 in Rain Rain
6:35 PM 35.8 °F 27.3 °F 35.6 °F 99% 29.58 in 3.0 mi North 12.7 mph 17.3 mph 0.06 in   Unknown
6:55 PM 36.0 °F 27.1 °F 35.8 °F 99% 29.56 in 4.0 mi North 13.8 mph 17.3 mph 0.10 in   Clear
7:15 PM 36.1 °F 26.9 °F 36.0 °F 99% 29.56 in 5.0 mi North 15.0 mph 19.6 mph 0.02 in Rain Rain
7:35 PM 36.1 °F 28.7 °F 36.0 °F 99% 29.54 in 5.0 mi NNE 10.4 mph 17.3 mph 0.06 in Rain Light Rain
7:55 PM 37.0 °F 29.8 °F 36.9 °F 99% 29.56 in 10.0 mi NW 10.4 mph - 0.06 in   Light Drizzle
8:15 PM 37.4 °F 31.4 °F 37.0 °F 99% 29.58 in 5.0 mi NNW 8.1 mph - N/A Thunderstorm Drizzle
8:35 PM 37.0 °F 31.0 °F 37.0 °F 100% 29.49 in 3.0 mi NE 8.1 mph - 0.02 in Rain Light Rain
8:55 PM 37.0 °F - 37.0 °F 100% 29.51 in 10.0 mi Calm Calm - 0.02 in   Overcast
9:15 PM 37.0 °F 29.3 °F 37.0 °F 100% 29.58 in 10.0 mi West 11.5 mph - N/A   Overcast
9:35 PM 37.0 °F 31.6 °F 37.0 °F 100% 29.52 in 2.5 mi NW 6.9 mph - 0.01 in Rain Heavy Rain
9:55 PM 37.0 °F 31.0 °F 37.0 °F 100% 29.56 in 3.0 mi West 8.1 mph - 0.01 in   Mist
10:15 PM 37.0 °F 31.6 °F 37.0 °F 100% 29.53 in 2.5 mi NW 6.9 mph - N/A   Drizzle
10:35 PM 37.0 °F 31.6 °F 37.0 °F 100% 29.52 in 4.0 mi WNW 6.9 mph - N/A   Overcast
10:55 PM 37.0 °F 31.6 °F 37.0 °F 100% 29.55 in 7.0 mi West 6.9 mph - N/A   Overcast
11:15 PM 37.0 °F 32.4 °F 37.0 °F 100% 29.57 in 10.0 mi West 5.8 mph - N/A   Overcast
11:35 PM 37.2 °F 32.6 °F 37.2 °F 100% 29.58 in 10.0 mi West 5.8 mph - N/A   Overcast
11:55 PM 37.0 °F 29.8 °F 37.0 °F 100% 29.61 in 10.0 mi West 10.4 mph - N/A   Overcast